SCP
0 0 0 0 0 0 0 0 0 0 0 0 0 0 0 0 0 0 0 0 0 0 0 0 0 0 0 0 0 0 0 0 0 0 0 0 0 0 0 0 0 0 0 0
0 0 0 0 0 0 0 0 0 0 0 0 0 0 0 0 0 0 0 0 0 0 0 0 0 0 0 0 0 0 0 0 0 0 0 0 0 0 0 0 0 0 0 0
0 0 0 0 0 0 0 0 0 0 0 0 0 0 0 0 0 0 0 0 0 0 0 0 0 0 0 0 0 0 0 0 0 0 0 0 0 0 0 0 0 0 0 0
0 0 0 0 0 0 0 0 0 0 0 0 0 0 0 0 0 0 0 0 0 0 0 0 0 0 0 0 0 0 0 0 0 0 0 0 0 0 0 0 0 0 0 0
0 0 0 0 0 0 0 0 0 0 0 0 0 0 0 0 0 0 0 0 0 0 0 0 0 0 0 0 0 0 0 0 0 0 0 0 0 0 0 0 0 0 0 0
0 0 0 0 0 0 0 0 0 0 0 0 0 0 0 0 0 0 0 0 0 0 0 0 0 0 0 0 0 0 0 0 0 0 0 0 0 0 0 0 0 0 0 0
0 0 0 0 0 0 0 0 0 0 0 0 0 0 0 0 0 0 0 0 0 0 0 0 0 0 0 0 0 0 0 0 0 0 0 0 0 0 0 0 0 0 0 0
0 0 0 0 0 0 0 0 0 0 0 0 0 0 0 0 0 0 0 0 0 0 0 0 0 0 0 0 0 0 0 0 0 0 0 0 0 0 0 0 0 0 0 0
0 0 0 0 0 0 0 0 0 0 0 0 0 0 0 0 0 0 0 0 0 0 0 0 0 0 0 0 0 0 0 0 0 0 0 0 0 0 0 0 0 0 0 0
0 0 0 0 0 0 0 0 0 0 0 0 0 0 0 0 0 0 0 0 0 0 0 0 0 0 0 0 0 0 0 0 0 0 0 0 0 0 0 0 0 0 0 0
0 0 0 0 0 0 0 0 0 0 0 0 0 0 0 0 0 0 0 0 0 0 0 0 0 0 0 0 0 0 0 0 0 0 0 0 0 0 0 0 0 -0 -0 -0
0 0 0 0 0 0 0 0 0 0 0 0 0 0 0 0 0 0 0 0 0 0 0 0 0 0 0 0 0 0 0 0 0 0 0 0 0 0 0 0 0 0 0 0
0 0 0 0 0 0 0 0 0 0 0 0 0 0 0 0 0 0 0 0 0 0 0 0 0 0 0 0 0 0 0 0 0 0 0 0 0 0 0 0 0 0 -0 -0
0 0 0 0 0 0 0 0 0 0 0 0 0 0 0 0 0 0 0 0 0 0 0 0 0 0 0 0 0 0 0 0 0 0 0 0 0 0 0 0 -0 -0 -0 -0
0 0 0 0 0 0 0 0 0 0 0 0 0 0 0 0 0 0 0 0 0 0 0 0 0 0 0 0 0 0 0 0 0 0 0 0 0 0 0 0 0 -0 0 0
0 0 0 0 0 0 0 0 0 0 0 0 0 0 0 0 0 0 0 0 0 0 0 0 0 0 0 0 0 0 0 0 0 0 0 0 0 0 -0 -0 -0 -0 0 0
0 0 0 0 0 0 0 0 0 0 0 0 0 0 0 0 0 0 0 0 0 0 0 0 0 0 0 0 0 0 -0 0 0 0 0 0 -0 -0 0 0 0 -0 -0 -0
-0 0 0 0 0 0 0 0 0 0 0 0 0 0 0 0 0 0 0 0 0 0 0 0 0 0 0 0 0 0 0 -0 -0 -0 0 0 0 0 0 -0 -0 0 -0 -0
0 0 0 0 0 0 0 0 0 0 0 0 0 0 0 0 0 0 0 0 0 0 0 0 0 0 0 0 0 0 0 -0 -0 0 -0 -0 -0 -0 0 0 0 0 0 0
-0 0 0 0 0 0 0 0 0 0 0 0 0 0 0 0 0 0 0 0 0 0 0 0 0 0 0 0 0 0 0 0 -0 -0 -0 -0 -0 -0 -0 -0 0 0 0 0
0 0 0 0 0 0 0 0 0 0 0 0 0 0 0 0 0 0 0 0 0 0 0 0 0 0 0 0 0 0 0 0 0 0 0 0 -0 -0 -0 -0 -0 -0 -0 0
0 0 0 0 0 0 0 0 0 0 0 0 0 0 0 0 0 0 0 0 0 0 0 0 0 0 0 0 0 0 0 0 0 0 0 0 0 0 0 -0 -0 -0 0 -0
0 0 0 0 0 0 0 0 0 0 0 0 0 0 0 0 0 0 0 0 0 0 0 0 0 0 0 0 0 0 0 0 0 0 0 0 0 0 0 -0 -0 0 0 0
0 0 0 0 0 0 0 0 0 0 0 0 0 0 0 0 0 0 0 0 0 0 0 0 0 0 0 -0 0 -0 -0 -0 0 0 0 -0 -0 0 -0 0 0 0 0 0
0 0 0 0 0 0 0 0 0 0 0 0 0 0 0 0 0 0 0 0 0 0 0 0 0 0 0 0 -0 -0 -0 -0 -0 0 0 0 -0 -0 -0 0 0 0 0 0
0 0 0 0 0 0 0 0 0 0 0 0 0 0 0 0 0 0 0 0 -0 -0 -0 0 -0 0 0 0 0 0 0 0 -0 0 0 -0 0 0 0 0 0 0 0 0
0 0 0 0 0 0 0 0 0 0 0 0 0 0 0 0 0 0 0 -0 0 0 -0 -0 0 0 0 0 0 0 -0 -0 0 0 0 0 0 0 0 0 0 0 0 0
Wind_Speed_500mb
46 42 32 25 17 21 29 28 7 32 48 15 10 9 12 11 7 22 5 2 5 10 12 12 11 11 9 4 10 14 7 7 7 12 4 2 2 7 12 7 10 3 4 12
56 48 40 31 32 30 36 22 13 35 59 14 7 1 7 12 8 8 12 12 10 6 9 7 11 9 5 9 3 11 11 5 3 10 5 3 10 13 11 5 5 11 10 11
57 55 49 39 35 37 38 19 7 15 40 13 16 12 9 11 12 7 11 5 9 9 4 5 8 6 5 6 7 6 11 4 11 12 7 8 7 9 14 9 7 8 13 11
59 59 54 47 41 50 48 23 12 19 18 21 11 15 13 22 13 14 27 10 7 11 8 6 10 4 5 7 4 6 3 7 7 8 10 9 11 15 14 22 32 14 9 16
69 63 57 53 46 54 52 23 9 9 7 27 30 25 23 16 15 16 18 22 14 22 13 10 6 4 7 9 3 10 1 4 4 7 2 7 11 19 10 18 9 12 30 22
74 70 66 56 50 58 40 52 19 7 16 9 20 36 36 35 14 12 21 19 20 12 14 17 12 5 6 9 11 11 10 7 4 12 2 6 22 18 20 13 13 19 27 34
78 70 61 60 59 56 46 44 31 14 7 15 20 16 37 36 31 32 6 23 14 12 12 6 8 10 23 26 19 17 10 10 6 5 4 9 13 2 9 27 15 30 11 18
81 66 66 64 61 56 69 40 52 19 4 8 11 17 12 37 37 25 21 34 5 26 19 5 3 5 3 13 17 26 11 10 6 6 9 16 28 10 15 16 15 36 39 37
83 71 75 74 59 59 56 43 61 37 9 11 25 14 22 9 9 4 17 36 21 22 5 6 12 11 8 12 7 22 24 15 12 8 8 15 7 13 12 7 28 17 34 34
86 80 71 64 61 59 57 47 42 41 16 11 28 11 18 22 12 5 8 15 16 36 12 7 7 8 9 12 14 10 14 12 25 16 8 16 16 6 17 12 10 19 13 15
90 83 75 63 61 59 61 41 50 48 15 32 31 24 21 20 19 10 13 9 4 7 12 9 9 8 10 8 8 15 23 17 9 12 12 26 14 8 12 2 17 24 27 8
83 78 71 65 60 57 55 47 49 36 13 9 30 40 34 26 26 23 22 5 10 21 4 1 5 4 2 8 8 7 13 14 11 19 14 6 7 19 19 19 20 26 32 29
83 73 68 61 59 56 61 52 42 38 22 16 16 33 44 37 30 37 16 9 12 7 7 5 5 9 5 9 11 10 8 15 7 5 15 21 50 56 49 44 44 40 23 35
78 71 66 62 54 48 49 45 36 42 15 5 13 30 46 35 47 47 36 19 14 5 3 4 3 5 6 6 7 14 12 15 12 18 10 19 36 22 33 47 60 59 49 32
75 70 63 56 52 45 38 32 33 38 23 7 5 17 37 34 49 48 49 45 40 21 5 5 6 5 2 3 2 6 13 12 11 10 8 11 18 27 30 39 44 37 30 27
67 63 58 56 52 47 34 15 36 40 38 4 1 4 19 27 29 33 38 44 42 27 12 7 13 19 4 5 7 10 32 48 47 6 30 39 43 44 39 36 46 55 53 54
68 61 57 53 48 43 36 13 12 45 44 13 3 6 16 34 25 40 32 36 28 25 17 14 12 12 21 5 31 14 31 35 45 50 51 57 52 44 56 60 54 64 64 54
63 59 52 45 39 34 27 13 20 51 36 16 5 7 4 22 16 14 31 24 35 23 17 11 7 12 19 18 37 43 59 71 83 93 80 81 75 78 79 70 79 77 68 63
60 54 47 42 42 25 34 28 23 51 16 13 8 10 7 21 11 12 12 19 4 10 6 8 13 9 15 14 34 34 52 63 74 81 72 75 70 71 80 83 91 80 73 75
60 59 22 14 31 34 29 19 18 18 13 15 5 13 3 20 12 6 10 8 7 3 12 15 11 28 74 81 72 69 78 80 74 66 59 72 78 74 83 86 80 68 77 71
46 16 9 41 52 25 11 10 8 5 3 12 17 32 6 20 7 7 16 5 2 6 9 13 6 13 28 67 90 92 100 96 101 91 89 85 80 83 78 68 66 72 80 73
24 30 32 40 13 7 9 7 2 6 12 10 10 25 40 19 14 6 7 7 5 11 6 6 7 16 45 52 61 66 71 77 85 84 88 89 85 89 81 82 87 89 95 93
47 15 9 8 4 5 14 15 6 2 6 17 16 4 20 14 14 5 6 6 11 3 3 10 13 18 17 19 32 43 38 42 52 62 72 84 88 93 94 101 105 93 98 99
10 12 8 9 6 9 9 10 10 17 15 41 35 11 7 12 5 6 7 11 6 2 2 20 8 5 20 25 33 45 49 46 46 47 53 64 68 80 85 88 90 89 91 90
9 10 8 8 9 5 8 18 10 17 25 40 11 7 9 2 5 8 4 6 10 13 11 4 20 32 31 32 34 37 41 43 43 43 47 50 51 59 70 70 71 75 82 88
10 7 6 5 7 5 7 18 12 25 37 25 8 6 6 8 8 6 14 9 10 5 2 10 32 29 27 31 34 37 39 41 42 40 41 44 43 47 51 54 57 58 57 62
11 4 7 8 5 14 14 22 20 36 32 6 6 10 17 2 3 5 6 9 1 6 14 22 27 28 30 30 33 35 37 38 38 35 31 33 32 33 37 41 42 44 47 52
Wind_Direction_500mb
237 233 225 218 200 200 182 170 182 187 178 155 213 185 172 190 200 211 269 114 245 186 175 177 204 217 221 341 159 164 183 116 176 195 216 224 274 229 187 147 245 252 168 272
228 228 224 208 200 195 167 175 174 185 184 208 189 188 232 203 196 186 181 205 201 198 191 210 194 200 11 349 114 154 181 222 32 347 19 349 216 203 210 134 84 201 166 259
227 225 223 211 201 184 173 170 161 188 207 231 182 165 183 172 220 206 130 230 240 140 210 314 170 131 35 11 76 20 129 124 175 191 152 134 219 253 222 166 138 204 218 286
220 218 218 213 203 186 185 195 219 187 199 200 176 171 191 197 185 231 184 204 234 191 184 212 223 190 130 31 61 31 74 211 168 253 242 200 224 235 186 206 227 208 261 209
222 218 217 211 204 191 200 189 189 186 166 173 196 209 212 181 195 188 206 217 196 220 195 191 174 151 200 194 34 173 89 253 134 272 251 219 262 241 213 219 223 262 260 270
211 209 203 206 204 200 213 208 200 203 188 156 186 211 211 211 181 242 220 187 222 216 227 229 213 197 192 168 171 173 177 162 92 261 10 338 283 205 207 191 198 196 223 232
211 209 206 208 209 210 210 204 197 190 235 188 199 193 206 214 209 215 187 181 160 186 204 240 272 269 226 191 201 192 172 149 154 254 42 217 246 181 184 209 221 222 239 230
202 204 210 208 205 211 220 199 199 196 207 176 193 192 186 210 219 225 234 249 232 202 150 123 176 208 227 221 216 207 189 163 197 203 206 312 296 195 178 180 260 213 224 243
201 202 205 210 198 206 220 217 199 193 136 225 188 191 190 172 173 140 216 229 225 199 130 165 195 206 168 196 226 209 202 204 206 173 208 221 256 327 140 91 279 236 204 232
195 198 196 195 201 202 213 221 190 202 216 210 201 184 194 191 163 134 138 169 180 203 180 181 176 239 188 182 182 166 188 193 221 228 253 280 249 231 146 130 243 17 192 228
191 194 192 194 198 199 211 216 210 210 186 209 208 181 165 157 178 159 155 130 199 167 187 175 188 180 223 175 195 165 185 190 190 205 222 254 191 89 200 235 340 20 16 337
184 186 185 191 196 198 202 211 217 212 204 191 205 209 215 216 210 163 172 187 167 185 125 290 124 209 189 160 209 237 201 197 187 196 211 241 183 254 266 330 320 329 328 328
181 181 185 184 192 198 203 200 196 197 208 243 219 219 210 210 198 212 173 205 195 182 122 166 219 225 149 178 230 218 243 203 219 91 247 247 269 277 276 294 302 309 318 332
176 179 183 185 187 196 195 191 187 189 150 161 233 213 227 212 219 217 216 210 185 169 210 52 257 214 169 236 258 232 201 157 189 256 326 307 275 272 292 295 300 301 316 312
173 175 176 176 177 184 186 192 204 206 195 172 186 203 209 214 222 224 225 229 238 239 174 185 214 298 317 241 252 246 193 190 197 234 210 272 299 310 320 321 329 350 2 353
170 172 171 173 174 186 177 179 211 211 214 172 102 241 218 207 206 208 212 225 233 221 200 202 225 222 220 237 252 233 244 256 253 288 310 297 300 309 305 312 311 315 326 323
165 165 166 167 170 175 175 187 193 197 192 170 357 316 200 200 213 214 218 222 210 209 217 220 232 210 200 234 249 213 245 257 271 285 290 293 292 294 299 302 302 308 312 313
158 160 164 165 172 171 184 172 183 176 168 152 143 259 321 189 180 189 205 198 202 209 209 201 174 201 207 245 252 252 253 261 267 272 270 270 277 281 285 288 294 303 299 305
151 151 153 155 169 163 185 191 163 170 172 171 148 148 219 179 170 168 161 189 163 226 201 209 185 203 221 237 247 245 250 249 256 264 266 268 266 269 278 284 285 288 295 301
150 152 136 155 138 150 156 155 172 200 202 196 192 163 204 173 164 171 122 176 212 189 230 189 212 241 245 249 261 268 266 267 268 262 266 268 266 263 270 277 277 276 290 300
145 136 115 139 136 126 167 140 153 184 292 199 191 185 157 196 120 196 203 183 246 225 251 166 238 253 248 252 249 251 253 255 257 260 264 267 269 272 271 269 263 276 283 290
132 140 125 140 150 135 129 171 127 169 210 193 166 204 199 174 169 129 195 191 134 245 160 134 259 261 259 258 257 256 253 255 257 258 259 259 258 259 259 262 267 271 280 283
129 109 144 139 199 144 168 179 246 275 202 171 160 168 166 161 181 86 113 157 230 24 191 225 250 273 232 270 285 280 270 267 267 265 259 256 255 255 258 262 265 267 270 273
125 145 144 177 226 231 177 184 180 208 182 171 175 124 153 164 124 171 157 230 79 0 294 239 241 294 310 305 313 309 304 300 290 284 277 270 265 261 260 257 259 261 261 264
146 151 211 197 200 181 212 198 191 179 181 165 127 101 158 283 124 194 72 352 239 201 225 261 339 331 330 327 319 317 316 312 305 296 286 280 278 273 268 262 260 260 260 262
188 194 91 54 99 298 210 195 198 180 159 145 139 147 99 230 173 103 221 153 221 237 304 334 333 322 329 330 327 325 318 312 309 304 295 284 276 270 267 262 259 257 256 256
187 172 167 188 147 192 185 185 169 170 162 176 130 143 203 104 180 269 196 199 266 326 334 344 322 323 331 337 338 333 328 321 314 309 302 291 282 272 266 260 259 259 251 248
Wind_Speed_850mb
46 42 32 25 17 21 29 28 7 32 48 15 10 9 12 11 7 22 5 2 5 10 12 12 11 11 9 4 10 14 7 7 7 12 4 2 2 7 12 7 10 3 4 12
56 48 40 31 32 30 36 22 13 35 59 14 7 1 7 12 8 8 12 12 10 6 9 7 11 9 5 9 3 11 11 5 3 10 5 3 10 13 11 5 5 11 10 11
57 55 49 39 35 37 38 19 7 15 40 13 16 12 9 11 12 7 11 5 9 9 4 5 8 6 5 6 7 6 11 4 11 12 7 8 7 9 14 9 7 8 13 11
59 59 54 47 41 50 48 23 12 19 18 21 11 15 13 22 13 14 27 10 7 11 8 6 10 4 5 7 4 6 3 7 7 8 10 9 11 15 14 22 32 14 9 16
69 63 57 53 46 54 52 23 9 9 7 27 30 25 23 16 15 16 18 22 14 22 13 10 6 4 7 9 3 10 1 4 4 7 2 7 11 19 10 18 9 12 30 22
74 70 66 56 50 58 40 52 19 7 16 9 20 36 36 35 14 12 21 19 20 12 14 17 12 5 6 9 11 11 10 7 4 12 2 6 22 18 20 13 13 19 27 34
78 70 61 60 59 56 46 44 31 14 7 15 20 16 37 36 31 32 6 23 14 12 12 6 8 10 23 26 19 17 10 10 6 5 4 9 13 2 9 27 15 30 11 18
81 66 66 64 61 56 69 40 52 19 4 8 11 17 12 37 37 25 21 34 5 26 19 5 3 5 3 13 17 26 11 10 6 6 9 16 28 10 15 16 15 36 39 37
83 71 75 74 59 59 56 43 61 37 9 11 25 14 22 9 9 4 17 36 21 22 5 6 12 11 8 12 7 22 24 15 12 8 8 15 7 13 12 7 28 17 34 34
86 80 71 64 61 59 57 47 42 41 16 11 28 11 18 22 12 5 8 15 16 36 12 7 7 8 9 12 14 10 14 12 25 16 8 16 16 6 17 12 10 19 13 15
90 83 75 63 61 59 61 41 50 48 15 32 31 24 21 20 19 10 13 9 4 7 12 9 9 8 10 8 8 15 23 17 9 12 12 26 14 8 12 2 17 24 27 8
83 78 71 65 60 57 55 47 49 36 13 9 30 40 34 26 26 23 22 5 10 21 4 1 5 4 2 8 8 7 13 14 11 19 14 6 7 19 19 19 20 26 32 29
83 73 68 61 59 56 61 52 42 38 22 16 16 33 44 37 30 37 16 9 12 7 7 5 5 9 5 9 11 10 8 15 7 5 15 21 50 56 49 44 44 40 23 35
78 71 66 62 54 48 49 45 36 42 15 5 13 30 46 35 47 47 36 19 14 5 3 4 3 5 6 6 7 14 12 15 12 18 10 19 36 22 33 47 60 59 49 32
75 70 63 56 52 45 38 32 33 38 23 7 5 17 37 34 49 48 49 45 40 21 5 5 6 5 2 3 2 6 13 12 11 10 8 11 18 27 30 39 44 37 30 27
67 63 58 56 52 47 34 15 36 40 38 4 1 4 19 27 29 33 38 44 42 27 12 7 13 19 4 5 7 10 32 48 47 6 30 39 43 44 39 36 46 55 53 54
68 61 57 53 48 43 36 13 12 45 44 13 3 6 16 34 25 40 32 36 28 25 17 14 12 12 21 5 31 14 31 35 45 50 51 57 52 44 56 60 54 64 64 54
63 59 52 45 39 34 27 13 20 51 36 16 5 7 4 22 16 14 31 24 35 23 17 11 7 12 19 18 37 43 59 71 83 93 80 81 75 78 79 70 79 77 68 63
60 54 47 42 42 25 34 28 23 51 16 13 8 10 7 21 11 12 12 19 4 10 6 8 13 9 15 14 34 34 52 63 74 81 72 75 70 71 80 83 91 80 73 75
60 59 22 14 31 34 29 19 18 18 13 15 5 13 3 20 12 6 10 8 7 3 12 15 11 28 74 81 72 69 78 80 74 66 59 72 78 74 83 86 80 68 77 71
46 16 9 41 52 25 11 10 8 5 3 12 17 32 6 20 7 7 16 5 2 6 9 13 6 13 28 67 90 92 100 96 101 91 89 85 80 83 78 68 66 72 80 73
24 30 32 40 13 7 9 7 2 6 12 10 10 25 40 19 14 6 7 7 5 11 6 6 7 16 45 52 61 66 71 77 85 84 88 89 85 89 81 82 87 89 95 93
47 15 9 8 4 5 14 15 6 2 6 17 16 4 20 14 14 5 6 6 11 3 3 10 13 18 17 19 32 43 38 42 52 62 72 84 88 93 94 101 105 93 98 99
10 12 8 9 6 9 9 10 10 17 15 41 35 11 7 12 5 6 7 11 6 2 2 20 8 5 20 25 33 45 49 46 46 47 53 64 68 80 85 88 90 89 91 90
9 10 8 8 9 5 8 18 10 17 25 40 11 7 9 2 5 8 4 6 10 13 11 4 20 32 31 32 34 37 41 43 43 43 47 50 51 59 70 70 71 75 82 88
10 7 6 5 7 5 7 18 12 25 37 25 8 6 6 8 8 6 14 9 10 5 2 10 32 29 27 31 34 37 39 41 42 40 41 44 43 47 51 54 57 58 57 62
11 4 7 8 5 14 14 22 20 36 32 6 6 10 17 2 3 5 6 9 1 6 14 22 27 28 30 30 33 35 37 38 38 35 31 33 32 33 37 41 42 44 47 52
Wind_Direction_850mb
237 233 225 218 200 200 182 170 182 187 178 155 213 185 172 190 200 211 269 114 245 186 175 177 204 217 221 341 159 164 183 116 176 195 216 224 274 229 187 147 245 252 168 272
228 228 224 208 200 195 167 175 174 185 184 208 189 188 232 203 196 186 181 205 201 198 191 210 194 200 11 349 114 154 181 222 32 347 19 349 216 203 210 134 84 201 166 259
227 225 223 211 201 184 173 170 161 188 207 231 182 165 183 172 220 206 130 230 240 140 210 314 170 131 35 11 76 20 129 124 175 191 152 134 219 253 222 166 138 204 218 286
220 218 218 213 203 186 185 195 219 187 199 200 176 171 191 197 185 231 184 204 234 191 184 212 223 190 130 31 61 31 74 211 168 253 242 200 224 235 186 206 227 208 261 209
222 218 217 211 204 191 200 189 189 186 166 173 196 209 212 181 195 188 206 217 196 220 195 191 174 151 200 194 34 173 89 253 134 272 251 219 262 241 213 219 223 262 260 270
211 209 203 206 204 200 213 208 200 203 188 156 186 211 211 211 181 242 220 187 222 216 227 229 213 197 192 168 171 173 177 162 92 261 10 338 283 205 207 191 198 196 223 232
211 209 206 208 209 210 210 204 197 190 235 188 199 193 206 214 209 215 187 181 160 186 204 240 272 269 226 191 201 192 172 149 154 254 42 217 246 181 184 209 221 222 239 230
202 204 210 208 205 211 220 199 199 196 207 176 193 192 186 210 219 225 234 249 232 202 150 123 176 208 227 221 216 207 189 163 197 203 206 312 296 195 178 180 260 213 224 243
201 202 205 210 198 206 220 217 199 193 136 225 188 191 190 172 173 140 216 229 225 199 130 165 195 206 168 196 226 209 202 204 206 173 208 221 256 327 140 91 279 236 204 232
195 198 196 195 201 202 213 221 190 202 216 210 201 184 194 191 163 134 138 169 180 203 180 181 176 239 188 182 182 166 188 193 221 228 253 280 249 231 146 130 243 17 192 228
191 194 192 194 198 199 211 216 210 210 186 209 208 181 165 157 178 159 155 130 199 167 187 175 188 180 223 175 195 165 185 190 190 205 222 254 191 89 200 235 340 20 16 337
184 186 185 191 196 198 202 211 217 212 204 191 205 209 215 216 210 163 172 187 167 185 125 290 124 209 189 160 209 237 201 197 187 196 211 241 183 254 266 330 320 329 328 328
181 181 185 184 192 198 203 200 196 197 208 243 219 219 210 210 198 212 173 205 195 182 122 166 219 225 149 178 230 218 243 203 219 91 247 247 269 277 276 294 302 309 318 332
176 179 183 185 187 196 195 191 187 189 150 161 233 213 227 212 219 217 216 210 185 169 210 52 257 214 169 236 258 232 201 157 189 256 326 307 275 272 292 295 300 301 316 312
173 175 176 176 177 184 186 192 204 206 195 172 186 203 209 214 222 224 225 229 238 239 174 185 214 298 317 241 252 246 193 190 197 234 210 272 299 310 320 321 329 350 2 353
170 172 171 173 174 186 177 179 211 211 214 172 102 241 218 207 206 208 212 225 233 221 200 202 225 222 220 237 252 233 244 256 253 288 310 297 300 309 305 312 311 315 326 323
165 165 166 167 170 175 175 187 193 197 192 170 357 316 200 200 213 214 218 222 210 209 217 220 232 210 200 234 249 213 245 257 271 285 290 293 292 294 299 302 302 308 312 313
158 160 164 165 172 171 184 172 183 176 168 152 143 259 321 189 180 189 205 198 202 209 209 201 174 201 207 245 252 252 253 261 267 272 270 270 277 281 285 288 294 303 299 305
151 151 153 155 169 163 185 191 163 170 172 171 148 148 219 179 170 168 161 189 163 226 201 209 185 203 221 237 247 245 250 249 256 264 266 268 266 269 278 284 285 288 295 301
150 152 136 155 138 150 156 155 172 200 202 196 192 163 204 173 164 171 122 176 212 189 230 189 212 241 245 249 261 268 266 267 268 262 266 268 266 263 270 277 277 276 290 300
145 136 115 139 136 126 167 140 153 184 292 199 191 185 157 196 120 196 203 183 246 225 251 166 238 253 248 252 249 251 253 255 257 260 264 267 269 272 271 269 263 276 283 290
132 140 125 140 150 135 129 171 127 169 210 193 166 204 199 174 169 129 195 191 134 245 160 134 259 261 259 258 257 256 253 255 257 258 259 259 258 259 259 262 267 271 280 283
129 109 144 139 199 144 168 179 246 275 202 171 160 168 166 161 181 86 113 157 230 24 191 225 250 273 232 270 285 280 270 267 267 265 259 256 255 255 258 262 265 267 270 273
125 145 144 177 226 231 177 184 180 208 182 171 175 124 153 164 124 171 157 230 79 0 294 239 241 294 310 305 313 309 304 300 290 284 277 270 265 261 260 257 259 261 261 264
146 151 211 197 200 181 212 198 191 179 181 165 127 101 158 283 124 194 72 352 239 201 225 261 339 331 330 327 319 317 316 312 305 296 286 280 278 273 268 262 260 260 260 262
188 194 91 54 99 298 210 195 198 180 159 145 139 147 99 230 173 103 221 153 221 237 304 334 333 322 329 330 327 325 318 312 309 304 295 284 276 270 267 262 259 257 256 256
187 172 167 188 147 192 185 185 169 170 162 176 130 143 203 104 180 269 196 199 266 326 334 344 322 323 331 337 338 333 328 321 314 309 302 291 282 272 266 260 259 259 251 248